TimeEDT,TemperatureF,Dew PointF,Humidity,Sea Level PressureIn,VisibilityMPH,Wind Direction,Wind SpeedMPH,Gust SpeedMPH,PrecipitationIn,Events,Conditions,WindDirDegrees,DateUTC
12:53 AM,73.9,63.0,68,30.06,10.0,ESE,6.9,-,N/A,,Overcast,120,2013-05-17 04:53:00
1:53 AM,72.0,63.0,73,30.05,10.0,East,3.5,-,N/A,,Clear,80,2013-05-17 05:53:00
2:53 AM,72.0,63.0,73,30.04,6.0,ESE,4.6,-,N/A,,Haze,110,2013-05-17 06:53:00
3:53 AM,71.1,64.0,78,30.02,5.0,ESE,3.5,-,N/A,,Haze,110,2013-05-17 07:53:00
4:53 AM,70.0,63.0,78,30.03,5.0,East,3.5,-,N/A,,Haze,100,2013-05-17 08:53:00
5:53 AM,69.1,64.0,84,30.04,7.0,Calm,Calm,-,N/A,,Clear,0,2013-05-17 09:53:00
6:53 AM,68.0,64.0,87,30.05,8.0,NE,3.5,-,N/A,,Partly Cloudy,50,2013-05-17 10:53:00
7:53 AM,71.1,64.9,81,30.07,9.0,NE,4.6,-,N/A,,Clear,40,2013-05-17 11:53:00
8:53 AM,75.9,66.0,71,30.07,10.0,East,3.5,-,N/A,,Clear,80,2013-05-17 12:53:00
9:53 AM,81.0,64.0,56,30.08,10.0,Calm,Calm,-,N/A,,Clear,0,2013-05-17 13:53:00
10:53 AM,84.0,61.0,46,30.08,10.0,North,3.5,-,N/A,,Partly Cloudy,10,2013-05-17 14:53:00
11:53 AM,86.0,62.1,44,30.08,10.0,NW,6.9,-,N/A,,Clear,320,2013-05-17 15:53:00
12:53 PM,84.9,66.0,53,30.07,10.0,WNW,10.4,-,N/A,,Clear,290,2013-05-17 16:53:00
1:53 PM,84.9,64.0,49,30.06,10.0,West,12.7,-,N/A,,Clear,260,2013-05-17 17:53:00
2:53 PM,84.9,62.1,46,30.05,10.0,West,11.5,-,N/A,,Clear,270,2013-05-17 18:53:00
3:53 PM,86.0,60.1,41,30.04,10.0,WSW,10.4,-,N/A,,Clear,250,2013-05-17 19:53:00
4:53 PM,84.9,63.0,48,30.04,10.0,West,13.8,-,N/A,,Clear,280,2013-05-17 20:53:00
5:53 PM,84.0,63.0,49,30.04,10.0,West,10.4,-,N/A,,Clear,280,2013-05-17 21:53:00
6:53 PM,82.0,64.0,54,30.03,10.0,WNW,6.9,-,N/A,,Clear,290,2013-05-17 22:53:00
7:01 PM,82.4,62.6,51,30.03,10.0,West,6.9,-,N/A,,Partly Cloudy,280,2013-05-17 23:01:00
7:53 PM,81.0,64.9,58,30.04,10.0,WNW,3.5,-,N/A,,Clear,290,2013-05-17 23:53:00
8:53 PM,79.0,66.0,64,30.05,10.0,NW,3.5,-,N/A,,Clear,320,2013-05-18 00:53:00
9:53 PM,79.0,66.9,66,30.06,10.0,Calm,Calm,-,N/A,,Clear,0,2013-05-18 01:53:00
10:53 PM,77.0,66.0,69,30.08,10.0,Calm,Calm,-,N/A,,Clear,0,2013-05-18 02:53:00
11:53 PM,75.0,66.9,76,30.07,10.0,Calm,Calm,-,N/A,,Clear,0,2013-05-18 03:53:00